Preview of NWS' New Version of Forecast
This preview is not operational and should not be used for support decisions.

Regional Weather Roundup (RWR)

Issued by National Weather Service (NWS)

                            
000
ASUS44 KMEG 220810
RWRTN 
TENNESSEE HOURLY STATE WEATHER ROUNDUP
NATIONAL WEATHER SERVICE MEMPHIS TN
300 AM CDT MON JUL 22 2019

TNZ002-004-019-021-049-052-054-088>092-220900-
WEST TENNESSEE
  
CITY           SKY/WX    TMP DP  RH WIND       PRES   REMARKS
MEMPHIS INTL   FAIR      78  76  93 S3        29.93S                  
NWS MEMPHIS      N/A     77 N/A N/A MISG        N/A                   
JACKSON        FAIR      76  75  97 S6        29.94S                  
DYERSBURG      FAIR      76  75  97 VRB3      29.92S                  
SOMERVILLE     MOCLDY    77  75  94 SW3       29.93S                  
COVINGTON      MOCLDY    75  75 100 S6        29.92S FOG              
UNION CITY     CLOUDY    79  77  94 S3        29.92R                  
BOLIVAR        PTCLDY    73  73 100 CALM      29.93S FOG              
PARIS          CLOUDY    77  75  94 CALM      29.94R                  
HUNTINGDON     MOCLDY    75  75 100 CALM      29.94R                  
LEXINGTON      CLEAR     75  75 100 CALM      29.93S                  
SELMER         PTCLDY    75  73  94 S6        29.94S                  
SAVANNAH       PTCLDY    75  75 100 S6        29.94S                  
$$

TNZ008-025-027-028-033-062-065-066-220900-
NORTH MIDDLE TENNESSEE
  
CITY           SKY/WX    TMP DP  RH WIND       PRES   REMARKS
NASHVILLE      MOCLDY    78  73  84 S8        29.94S                  
PORTLAND       MOCLDY    79  75  89 SW5       29.93R                  
CLARKSVILLE    FAIR      78  76  93 SW3       29.93R                  
LEBANON        MOSUNNY   77  73  88 S9        29.93R                  
SMYRNA         FAIR      76  74  93 S5        29.95F                  
MURFREESBORO   CLOUDY    75  72  88 S8        29.94S                  
LIVINGSTON     PTSUNNY   73  72  94 SW8       29.97S                  
GALLATIN       PTSUNNY   77  75  94 CALM      29.96R                  
CROSSVILLE     MOCLDY    72  69  90 VRB5      30.03S                  
ROCKWOOD       CLOUDY    72  72 100 CALM      30.00F                  
$$

TNZ061-075-076-078-094-096-097-220900-
SOUTH MIDDLE TENNESSEE
  
CITY           SKY/WX    TMP DP  RH WIND       PRES   REMARKS
LAWRENCEBURG   SUNNY     73  72  94 CALM      29.97S                  
LEWISBURG      SUNNY     75  73  94 S5        29.96S                  
FAYETTEVILLE   MOCLDY    73  73 100 S5        29.98F                  
TULLAHOMA      MOCLDY    73  72  94 SE3       29.98S                  
WINCHESTER     CLOUDY    73  72  94 SE3       29.99S                  
MCMINNVILLE    CLOUDY    73  72  94 CALM      29.98F                  
COLUMBIA       MOCLDY    75  75 100 S5        29.94S FOG              
SHELBYVILLE    CLEAR     73  72  94 S5        29.97S                  
$$

TNZ017-018-042-046-047-220900-
NORTHEAST TENNESSEE
  
CITY           SKY/WX    TMP DP  RH WIND       PRES   REMARKS
TRI CITIES     MOCLDY    74  70  87 S5        30.01S                  
ELIZABETHTON   RAIN      72  70  94 NE5       30.01F                  
GREENEVILLE    CLOUDY    73  72  94 CALM      30.00F                  
$$

TNZ012-013-036-069-073-074-220900-
CENTRAL EAST TENNESSEE
  
CITY           SKY/WX    TMP DP  RH WIND       PRES   REMARKS
KNOXVILLE      LGT RAIN  74  70  87 SW5       29.97S                  
OAK RIDGE      MOCLDY    77  72  84 CALM      29.99F                  
DOWNTOWN KNOXV CLOUDY    73  72  94 CALM      29.98F                  
GATLINBURG     CLOUDY    77  72  83 VRB6      29.98R                  
MORRISTOWN     CLOUDY    77  73  88 W6        29.99R                  
JACKSBORO      PTCLDY    72  72 100 CALM      30.01F                  
$$

TNZ083-085-099-220900-
SOUTHEAST TENNESSEE
  
CITY           SKY/WX    TMP DP  RH WIND       PRES   REMARKS
CHATTANOOGA    MOCLDY    79  73  82 S6        29.99S                  
DAYTON         CLOUDY    77  73  88 S3        29.97S                  
$$

SKY/WX REPORTED AS FAIR MEANS FEW OR NO CLOUDS BELOW
12 THOUSAND FEET.